Location: Clanezzo
(45.7500°N, 9.6000°E)
Time: 01:16:09
(UTC+00:00)

COSMOS 2406 - Pass Details

Date: 12 May 2021
Orbit: 844 x 862 km, 71.0° (Epoch: 23 June)

Event Time Altitude Azimuth Distance (km) Brightness Sun altitude
Rises 19:47:16 0° 336° (NNW) 3,414 7.6 -10.1°
Reaches altitude 10° 19:49:47 10° 341° (NNW) 2,476 6.6 -10.5°
Maximum altitude 19:55:21 54° 59° (ENE) 1,020 3.5 -11.2°
Enters shadow 19:59:49 16° 133° (SE) 2,080 4.6 -11.8°
